Location: *
(50.3440°N, 18.6237°E)
Time: 17:10:33
(UTC+00:00)

Cosmos 2228 Rocket - Pass Details

Date: 30 November 2020
Orbit: 618 x 652 km, 82.5° (Epoch: 17 January)

Event Time Altitude Azimuth Distance (km) Brightness Sun altitude
Rises 17:05:05 0° 178° (S) 2,951 6.6 -21.4°
Reaches altitude 10° 17:07:21 10° 175° (S) 2,041 5.7 -21.8°
Enters shadow 17:11:15 56° 132° (SE) 770 3.2 -22.4°
